EW1336 Weather Reports


Display with metric or nautical units.
time (UTC)temp
F
wind
direction
speed
MPH
gust
MPH
rain 1hr
in
rain 24hr
in
rain mn
in
humidity
%
barometer
mb
20260906194549 60 280 1.0 5.0 0.00 0.00 0.00 46 1009.2
20260906193048 60 267 1.0 4.0 0.00 0.00 0.00 45 1009.4
20260906191547 59 240 0.0 4.0 0.00 0.00 0.00 47 1009.3
20260906190111 58 257 0.0 4.0 0.00 0.00 0.00 47 1009.4
20260906184544 58 278 1.0 6.0 0.00 0.00 0.00 48 1009.5
20260906183051 57 245 1.0 5.0 0.00 0.00 0.00 49 1009.6
20260906181542 57 267 1.0 6.0 0.00 0.00 0.00 50 1009.9
20260906180037 56 18 0.0 3.0 0.00 0.00 0.00 51 1009.9
20260906174534 55 229 0.0 5.0 0.00 0.00 0.00 53 1009.9
20260906173031 54 278 0.0 5.0 0.00 0.00 0.00 57 1009.8
20260906171529 52 274 0.0 5.0 0.00 0.00 0.00 62 1009.8
20260906170030 52 276 0.0 4.0 0.00 0.00 0.00 64 1010.0
20260906164524 51 276 0.0 3.0 0.00 0.00 0.00 67 1010.0
20260906163022 50 245 0.0 3.0 0.00 0.00 0.00 68 1010.1
20260906161519 49 245 0.0 2.0 0.00 0.00 0.00 69 1010.2
20260906160016 48 271 0.0 3.0 0.00 0.00 0.00 70 1010.3
20260906154513 48 266 0.0 4.0 0.00 0.00 0.00 71 1010.3
20260906153018 47 274 1.0 7.0 0.00 0.00 0.00 70 1010.3
20260906151512 47 264 0.0 3.0 0.00 0.00 0.00 67 1010.3
20260906150015 47 260 0.0 3.0 0.00 0.00 0.00 66 1010.4
20260906144515 46 191 0.0 2.0 0.00 0.00 0.00 64 1010.2
20260906143014 46 184 0.0 4.0 0.00 0.00 0.00 62 1010.0
20260906141506 46 277 0.0 3.0 0.00 0.00 0.00 59 1009.9
20260906140020 46 280 0.0 4.0 0.00 0.00 0.00 58 1009.8
20260906134509 46 231 0.0 1.0 0.00 0.00 0.00 57 1009.7
20260906133007 46 259 0.0 1.0 0.00 0.00 0.00 59 1009.6
20260906131505 46 262 0.0 2.0 0.00 0.00 0.00 59 1009.5
20260906130004 46 235 0.0 1.0 0.00 0.00 0.00 61 1009.4
20260906124502 46 278 0.0 1.0 0.00 0.00 0.00 61 1009.5
20260906123059 46 219 0.0 6.0 0.00 0.00 0.00 61 1009.5
20260906121559 46 266 0.0 1.0 0.00 0.00 0.00 63 1009.6
20260906120057 46 166 0.0 1.0 0.00 0.00 0.00 64 1009.7
20260906114559 46 226 0.0 2.0 0.00 0.00 0.00 65 1009.7
20260906113101 46 278 0.0 1.0 0.00 0.00 0.00 65 1009.8
20260906111557 46 252 0.0 1.0 0.00 0.00 0.00 66 1009.8
20260906110059 46 210 0.0 1.0 0.00 0.00 0.00 64 1009.7
20260906104554 46 278 0.0 2.0 0.00 0.00 0.00 65 1009.7
20260906103052 46 200 0.0 1.0 0.00 0.00 0.00 64 1009.7
20260906101552 46 248 0.0 1.0 0.00 0.00 0.00 65 1009.9
20260906100051 46 288 0.0 1.0 0.00 0.00 0.00 66 1009.9
20260906094604 46 357 0.0 0.0 0.00 0.00 0.00 67 1009.9
20260906093058 46 252 0.0 2.0 0.00 0.00 0.00 67 1009.8
20260906091547 46 78 0.0 1.0 0.00 0.00 0.00 67 1010.0
20260906090109 46 72 0.0 2.0 0.00 0.00 0.00 69 1010.1
20260906084551 45 134 0.0 1.0 0.00 0.00 0.00 70 1010.2
20260906083043 46 117 0.0 0.0 0.00 0.00 0.00 70 1010.2
20260906081540 46 116 0.0 1.0 0.00 0.00 0.00 70 1010.2
20260906080037 46 212 0.0 0.0 0.00 0.00 0.00 71 1010.3
20260906074547 46 262 0.0 0.0 0.00 0.00 0.00 70 1010.4
20260906073035 46 277 0.0 1.0 0.00 0.00 0.00 71 1010.4
20260906071533 46 22 0.0 1.0 0.00 0.00 0.00 72 1010.4
20260906070031 46 266 0.0 2.0 0.00 0.00 0.00 73 1010.6
20260906064534 46 231 0.0 0.0 0.00 0.00 0.00 74 1010.6
20260906063031 46 264 0.0 1.0 0.00 0.00 0.00 75 1010.7
20260906061538 46 231 0.0 0.0 0.00 0.00 0.00 75 1010.9
20260906060029 46 262 0.0 1.0 0.00 0.00 0.00 75 1011.0
20260906054529 46 238 0.0 1.0 0.00 0.00 0.00 75 1010.9
20260906053029 46 236 0.0 0.0 0.00 0.00 0.00 73 1011.0
20260906051533 46 210 0.0 1.0 0.00 0.00 0.00 72 1011.1
20260906050028 46 263 0.0 1.0 0.00 0.00 0.00 71 1011.1
20260906044527 46 354 0.0 1.0 0.00 0.00 0.00 70 1011.2
20260906043027 47 283 0.0 1.0 0.00 0.00 0.00 70 1011.0
20260906041537 47 266 0.0 1.0 0.00 0.00 0.00 71 1010.9
20260906040025 47 221 0.0 0.0 0.00 0.00 0.00 70 1010.8
20260906034525 47 276 0.0 1.0 0.00 0.00 0.00 70 1010.7
20260906033024 48 264 0.0 1.0 0.00 0.00 0.00 69 1010.2
20260906031523 48 280 0.0 3.0 0.00 0.00 0.00 69 1009.9
20260906030032 48 266 0.0 1.0 0.00 0.00 0.00 69 1009.7
20260906024522 48 262 0.0 0.0 0.00 0.00 0.00 69 1009.8
20260906023024 49 278 0.0 1.0 0.00 0.00 0.00 68 1010.0
20260906021522 50 238 0.0 1.0 0.00 0.00 0.00 67 1009.9
20260906020021 50 248 0.0 3.0 0.00 0.00 0.00 66 1009.8
20260906014538 51 250 0.0 1.0 0.00 0.00 0.00 64 1009.8
20260906013024 52 255 0.0 2.0 0.00 0.00 0.00 61 1009.6
20260906011520 53 270 0.0 2.0 0.00 0.00 0.00 59 1009.5
20260906010039 54 273 0.0 3.0 0.00 0.00 0.00 57 1009.9
20260906004517 56 267 0.0 3.0 0.00 0.00 0.00 56 1010.0
20260906003017 56 240 0.0 4.0 0.00 0.00 0.00 55 1010.0
20260906001518 56 203 0.0 3.0 0.00 0.00 0.00 53 1010.0
20260906000015 57 273 0.0 4.0 0.00 0.00 0.00 53 1010.1
20260905234514 57 269 0.0 3.0 0.00 0.00 0.00 53 1010.1
20260905233014 58 267 1.0 4.0 0.00 0.00 0.00 50 1010.0
20260905231513 59 266 0.0 4.0 0.00 0.00 0.00 51 1010.2
20260905230006 59 245 0.0 4.0 0.00 0.00 0.00 49 1010.4
20260905224505 59 260 0.0 2.0 0.00 0.00 0.00 52 1010.6
20260905223011 59 283 0.0 7.0 0.00 0.00 0.00 50 1010.7
20260905221501 58 316 0.0 5.0 0.00 0.00 0.00 48 1010.8
20260905220100 58 274 0.0 3.0 0.00 0.00 0.00 50 1010.8
20260905214558 57 266 0.0 4.0 0.00 0.00 0.00 51 1010.8
20260905213059 58 245 0.0 6.0 0.00 0.00 0.00 48 1011.0
20260905211555 59 210 0.0 4.0 0.00 0.00 0.00 47 1011.2
20260905210056 60 269 0.0 3.0 0.00 0.00 0.00 48 1011.3
20260905204550 59 273 0.0 3.0 0.00 0.00 0.00 50 1011.4
20260905203056 59 269 0.0 6.0 0.00 0.00 0.00 51 1011.5
20260905201557 59 262 0.0 4.0 0.00 0.00 0.00 50 1011.6
20260905200046 58 265 1.0 7.0 0.00 0.00 0.00 48 1011.6